User: anonymous   Login
Location: Newark
(13.6797°N, 8.5297°E)
Time: 03:56:36
(UTC+00:00)
Language:

Tiros 1 despin weight - Orbit

View from above orbital plane
View from above orbital plane
View from above satellite
View from above satellite

Ground track
Ground track

The orbit data is extracted from the following two-line orbital elements,

1   115U 60002D   20027.01261833 -.00000101 +00000-0 +15162-4 0  9992
2   115 048.1654 239.1479 0034804 340.8753 019.0851 14.83529080170665
Epoch (UTC): 27 January 2020 00:18:10
Eccentricity: 0.0034804
inclination: 48.1654°
perigee height: 594 km
apogee height: 642 km
right ascension of ascending node: 239.1479°
argument of perigee: 340.8753°
revolutions per day: 14.83529080
mean anomaly at epoch: 19.0851°
orbit number at epoch: 17066

The dashed part of the orbit path shows where the satellite is in the earth's shadow,  

DLR